TAM3240 SBGR-SBPS

Flight info

Callsign TAM3240
Flight time N/A
Altitude 35000
Route ISNAP1A VUMEV UZ14 NITLU UZ16 OSUNO DCT
Aircraft A321/M-SDE3FGHIRWY/LB1

Departure

Time 2026-05-04 21:48
Airport São Paulo/Guarulhos–Governor André Franco Montoro International Airport (SBGR)

Arrival

Time N/A
Airport Porto Seguro International Airport (SBPS)
Time Latitude Longitude Altitude Speed Heading
2026-05-04 21:28 -23.42864 -46.48369 2474 ft 0 kts 36°
2026-05-04 21:32 -23.42866 -46.48371 2474 ft 1 kts 36°
2026-05-04 21:32 -23.42879 -46.48381 2474 ft 3 kts 36°
2026-05-04 21:32 -23.42894 -46.48393 2474 ft 3 kts 36°
2026-05-04 21:32 -23.42911 -46.48406 2474 ft 3 kts 36°
2026-05-04 21:33 -23.42927 -46.48420 2474 ft 3 kts 36°
2026-05-04 21:33 -23.42944 -46.48433 2474 ft 3 kts 36°
2026-05-04 21:33 -23.42945 -46.48434 2474 ft 0 kts 36°
2026-05-04 21:37 -23.42944 -46.48433 2474 ft 0 kts 36°
2026-05-04 21:40 -23.42942 -46.48432 2474 ft 2 kts 36°
2026-05-04 21:40 -23.42941 -46.48431 2474 ft 0 kts 36°
2026-05-04 21:41 -23.42938 -46.48429 2474 ft 3 kts 25°
2026-05-04 21:41 -23.42921 -46.48442 2474 ft 2 kts 264°
2026-05-04 21:41 -23.42934 -46.48453 2474 ft 4 kts 198°
2026-05-04 21:41 -23.42949 -46.48455 2474 ft 0 kts 180°
2026-05-04 21:42 -23.42967 -46.48455 2474 ft 4 kts 180°
2026-05-04 21:42 -23.43006 -46.48455 2474 ft 6 kts 168°
2026-05-04 21:42 -23.43056 -46.48441 2474 ft 9 kts 164°
2026-05-04 21:42 -23.43119 -46.48420 2474 ft 8 kts 163°
2026-05-04 21:43 -23.43162 -46.48406 2474 ft 2 kts 163°
2026-05-04 21:43 -23.43179 -46.48400 2474 ft 4 kts 163°
2026-05-04 21:43 -23.43217 -46.48388 2474 ft 7 kts 163°
2026-05-04 21:43 -23.43268 -46.48372 2474 ft 6 kts 163°
2026-05-04 21:44 -23.43305 -46.48360 2474 ft 6 kts 164°
2026-05-04 21:44 -23.43336 -46.48351 2474 ft 2 kts 163°
2026-05-04 21:44 -23.43346 -46.48347 2474 ft 1 kts 163°
2026-05-04 21:44 -23.43347 -46.48347 2474 ft 0 kts 163°
2026-05-04 21:45 -23.43351 -46.48346 2474 ft 2 kts 163°
2026-05-04 21:45 -23.43364 -46.48342 2474 ft 2 kts 163°
2026-05-04 21:45 -23.43382 -46.48336 2474 ft 3 kts 163°
2026-05-04 21:45 -23.43404 -46.48329 2474 ft 4 kts 164°
2026-05-04 21:46 -23.43419 -46.48324 2474 ft 1 kts 155°
2026-05-04 21:46 -23.43426 -46.48310 2474 ft 3 kts 105°
2026-05-04 21:46 -23.43424 -46.48280 2474 ft 4 kts 78°
2026-05-04 21:46 -23.43422 -46.48269 2474 ft 0 kts 74°
2026-05-04 21:47 -23.43421 -46.48268 2474 ft 1 kts 74°
2026-05-04 21:48 -23.43376 -46.48097 2474 ft 58 kts 73°
2026-05-04 21:48 -23.43190 -46.47423 2474 ft 126 kts 73°
2026-05-04 21:48 -23.42880 -46.46296 2511 ft 180 kts 73°
2026-05-04 21:48 -23.42491 -46.44948 3216 ft 186 kts 72°
2026-05-04 21:49 -23.42089 -46.43632 4076 ft 192 kts 73°
2026-05-04 21:49 -23.41653 -46.42171 4666 ft 210 kts 74°
2026-05-04 21:49 -23.41193 -46.40617 5409 ft 222 kts 73°
2026-05-04 21:49 -23.40704 -46.38942 6095 ft 240 kts 71°
2026-05-04 21:50 -23.40158 -46.37159 6811 ft 257 kts 68°
2026-05-04 21:50 -23.39394 -46.35355 7530 ft 272 kts 59°
2026-05-04 21:50 -23.38399 -46.33536 8335 ft 285 kts 56°
2026-05-04 21:50 -23.37337 -46.31688 9271 ft 295 kts 56°
2026-05-04 21:51 -23.36220 -46.29756 9858 ft 298 kts 55°
2026-05-04 21:51 -23.35102 -46.27831 10410 ft 313 kts 55°
2026-05-04 21:51 -23.33884 -46.25740 10556 ft 343 kts 56°
2026-05-04 21:51 -23.32565 -46.23471 10868 ft 364 kts 56°
2026-05-04 21:52 -23.31189 -46.21099 11413 ft 376 kts 56°
2026-05-04 21:52 -23.29776 -46.18661 12059 ft 383 kts 56°
2026-05-04 21:52 -23.28341 -46.16186 12742 ft 389 kts 56°
2026-05-04 21:52 -23.26888 -46.13680 13438 ft 394 kts 56°
2026-05-04 21:53 -23.25437 -46.11180 14123 ft 398 kts 56°
2026-05-04 21:53 -23.23948 -46.08615 14806 ft 402 kts 56°
2026-05-04 21:53 -23.22314 -46.06129 15417 ft 406 kts 46°
2026-05-04 21:53 -23.20216 -46.04072 15982 ft 407 kts 32°
2026-05-04 21:54 -23.17729 -46.02623 16544 ft 407 kts 19°
2026-05-04 21:54 -23.15055 -46.01548 17212 ft 408 kts 17°
2026-05-04 21:54 -23.12353 -46.00547 17817 ft 410 kts 12°
2026-05-04 21:54 -23.09544 -46.00017 18323 ft 410 kts
2026-05-04 21:55 -23.06747 -45.99704 18904 ft 411 kts
2026-05-04 21:55 -23.03877 -45.99404 19465 ft 414 kts
2026-05-04 21:55 -23.01001 -45.99095 19988 ft 416 kts
2026-05-04 21:55 -22.98105 -45.98775 20481 ft 419 kts
2026-05-04 21:56 -22.95186 -45.98444 20951 ft 422 kts
2026-05-04 21:56 -22.92293 -45.98074 21408 ft 425 kts
2026-05-04 21:56 -22.89394 -45.97314 21918 ft 430 kts 15°
2026-05-04 21:56 -22.86621 -45.96022 22382 ft 435 kts 25°
2026-05-04 21:57 -22.84040 -45.94267 22786 ft 440 kts 31°
2026-05-04 21:57 -22.81525 -45.92390 23099 ft 445 kts 32°
2026-05-04 21:57 -22.78976 -45.90470 23427 ft 448 kts 32°
2026-05-04 21:57 -22.76380 -45.88511 23779 ft 451 kts 32°
2026-05-04 21:58 -22.73799 -45.86564 24116 ft 453 kts 32°
2026-05-04 21:58 -22.71232 -45.84629 24438 ft 455 kts 32°
2026-05-04 21:58 -22.68621 -45.82660 24758 ft 457 kts 32°
2026-05-04 21:58 -22.65996 -45.80682 25071 ft 459 kts 32°
2026-05-04 21:59 -22.63365 -45.78701 25377 ft 461 kts 32°
2026-05-04 21:59 -22.60717 -45.76708 25678 ft 463 kts 32°
2026-05-04 21:59 -22.58092 -45.74733 25967 ft 465 kts 32°
2026-05-04 21:59 -22.55429 -45.72730 26253 ft 467 kts 32°
2026-05-04 22:00 -22.52751 -45.70717 26533 ft 469 kts 32°
2026-05-04 22:00 -22.50050 -45.68688 26808 ft 471 kts 32°
2026-05-04 22:00 -22.47351 -45.66662 27075 ft 473 kts 32°
2026-05-04 22:00 -22.44643 -45.64629 27336 ft 475 kts 32°
2026-05-04 22:01 -22.41951 -45.62610 27589 ft 477 kts 32°
2026-05-04 22:01 -22.39221 -45.60563 27838 ft 478 kts 32°
2026-05-04 22:01 -22.36477 -45.58506 28086 ft 480 kts 32°
2026-05-04 22:01 -22.33734 -45.56451 28355 ft 481 kts 32°
2026-05-04 22:02 -22.30975 -45.54385 28640 ft 481 kts 32°
2026-05-04 22:02 -22.28247 -45.52344 28928 ft 481 kts 32°
2026-05-04 22:02 -22.25504 -45.50292 29222 ft 481 kts 32°
2026-05-04 22:02 -22.22744 -45.48228 29517 ft 480 kts 32°
2026-05-04 22:03 -22.19995 -45.46174 29810 ft 480 kts 32°
2026-05-04 22:03 -22.17242 -45.44117 30101 ft 479 kts 32°
2026-05-04 22:03 -22.14501 -45.42071 30390 ft 479 kts 32°
2026-05-04 22:03 -22.11781 -45.40041 30679 ft 478 kts 32°
2026-05-04 22:04 -22.09045 -45.38001 30970 ft 478 kts 32°
2026-05-04 22:04 -22.06310 -45.35962 31263 ft 477 kts 32°
2026-05-04 22:04 -22.03583 -45.33910 31564 ft 477 kts 33°
2026-05-04 22:04 -22.00975 -45.31784 31876 ft 477 kts 35°
2026-05-04 22:05 -21.98344 -45.29573 32166 ft 476 kts 36°
2026-05-04 22:05 -21.95728 -45.27362 32447 ft 476 kts 36°
2026-05-04 22:05 -21.93126 -45.25163 32724 ft 475 kts 36°
2026-05-04 22:05 -21.90568 -45.23001 32993 ft 475 kts 36°
2026-05-04 22:06 -21.87911 -45.20756 33268 ft 474 kts 36°
2026-05-04 22:06 -21.85344 -45.18589 33530 ft 474 kts 36°
2026-05-04 22:06 -21.82747 -45.16397 33792 ft 473 kts 36°
2026-05-04 22:06 -21.80148 -45.14205 34048 ft 473 kts 36°
2026-05-04 22:07 -21.77560 -45.12023 34300 ft 472 kts 36°
2026-05-04 22:07 -21.74979 -45.09848 34547 ft 472 kts 36°
2026-05-04 22:07 -21.72426 -45.07696 34837 ft 469 kts 36°
2026-05-04 22:07 -21.69856 -45.05533 34954 ft 467 kts 36°
2026-05-04 22:08 -21.67318 -45.03395 34985 ft 460 kts 36°
2026-05-04 22:08 -21.62240 -44.99126 34996 ft 467 kts 36°
2026-05-04 22:09 -21.57112 -44.94819 34995 ft 468 kts 36°
2026-05-04 22:09 -21.52018 -44.90542 34996 ft 467 kts 36°
2026-05-04 22:10 -21.46894 -44.86246 34996 ft 467 kts 36°
2026-05-04 22:10 -21.41761 -44.81945 34996 ft 467 kts 35°
2026-05-04 22:11 -21.36661 -44.77675 34996 ft 467 kts 35°
2026-05-04 22:11 -21.31506 -44.73383 34996 ft 467 kts 35°
2026-05-04 22:12 -21.26408 -44.69144 34996 ft 467 kts 35°
2026-05-04 22:12 -21.21271 -44.64870 34996 ft 467 kts 35°
2026-05-04 22:13 -21.16137 -44.60603 34996 ft 467 kts 35°
2026-05-04 22:13 -21.11003 -44.56336 34996 ft 467 kts 35°
2026-05-04 22:14 -21.05865 -44.52066 34996 ft 467 kts 35°
2026-05-04 22:14 -21.00767 -44.47830 34996 ft 467 kts 35°
2026-05-04 22:15 -20.95617 -44.43556 34996 ft 467 kts 35°
2026-05-04 22:15 -20.90508 -44.39328 34996 ft 467 kts 35°
2026-05-04 22:16 -20.85371 -44.35077 34996 ft 467 kts 35°
2026-05-04 22:16 -20.80233 -44.30827 34996 ft 467 kts 35°
2026-05-04 22:17 -20.75097 -44.26580 34996 ft 467 kts 35°
2026-05-04 22:17 -20.69984 -44.22354 34996 ft 467 kts 35°
2026-05-04 22:18 -20.64833 -44.18100 34996 ft 467 kts 35°
2026-05-04 22:18 -20.59744 -44.13845 34996 ft 467 kts 36°
2026-05-04 22:19 -20.54647 -44.09531 34995 ft 467 kts 37°
2026-05-04 22:19 -20.50158 -44.04484 34995 ft 471 kts 51°
2026-05-04 22:20 -20.46779 -43.98513 34996 ft 473 kts 59°
2026-05-04 22:20 -20.43605 -43.92354 34996 ft 473 kts 59°
2026-05-04 22:21 -20.40428 -43.86187 34996 ft 473 kts 59°
2026-05-04 22:21 -20.37271 -43.80066 34996 ft 473 kts 59°
2026-05-04 22:22 -20.34090 -43.73906 34996 ft 473 kts 59°
2026-05-04 22:22 -20.30906 -43.67748 34996 ft 473 kts 59°
2026-05-04 22:23 -20.27738 -43.61628 34996 ft 473 kts 59°
2026-05-04 22:23 -20.24548 -43.55474 34996 ft 473 kts 59°
2026-05-04 22:24 -20.21378 -43.49365 34996 ft 473 kts 59°
2026-05-04 22:24 -20.18188 -43.43226 34996 ft 473 kts 59°
2026-05-04 22:25 -20.15530 -43.38115 34996 ft 473 kts 59°
2026-05-04 22:25 -20.12337 -43.31982 34996 ft 473 kts 59°
2026-05-04 22:26 -20.09236 -43.25822 34996 ft 474 kts 61°
2026-05-04 22:26 -20.06229 -43.19574 34996 ft 474 kts 62°
2026-05-04 22:27 -20.03235 -43.13342 34996 ft 474 kts 62°
2026-05-04 22:27 -20.00225 -43.07078 34996 ft 474 kts 61°
2026-05-04 22:28 -19.97240 -43.00870 34996 ft 474 kts 61°
2026-05-04 22:28 -19.93819 -42.94921 34998 ft 471 kts 49°
2026-05-04 22:29 -19.89529 -42.89666 34996 ft 470 kts 46°
2026-05-04 22:29 -19.85204 -42.84443 34996 ft 470 kts 46°
2026-05-04 22:30 -19.80913 -42.79237 34996 ft 470 kts 47°
2026-05-04 22:30 -19.76605 -42.73991 34996 ft 470 kts 47°
2026-05-04 22:31 -19.72328 -42.68767 34996 ft 470 kts 47°
2026-05-04 22:31 -19.68026 -42.63515 34996 ft 470 kts 47°
2026-05-04 22:32 -19.63748 -42.58305 34996 ft 470 kts 47°
2026-05-04 22:32 -19.59444 -42.53058 34996 ft 470 kts 47°
2026-05-04 22:33 -19.55151 -42.47816 34996 ft 470 kts 47°
2026-05-04 22:33 -19.50885 -42.42604 34996 ft 470 kts 47°
2026-05-04 22:34 -19.46590 -42.37353 34996 ft 470 kts 47°
2026-05-04 22:34 -19.42301 -42.32108 34996 ft 470 kts 47°
2026-05-04 22:35 -19.38031 -42.26886 34996 ft 470 kts 47°
2026-05-04 22:35 -19.33762 -42.21668 34996 ft 470 kts 47°
2026-05-04 22:36 -19.29472 -42.16425 34996 ft 470 kts 47°
2026-05-04 22:36 -19.25176 -42.11184 34996 ft 470 kts 47°
2026-05-04 22:37 -19.20901 -42.05982 34996 ft 470 kts 47°
2026-05-04 22:37 -19.16597 -42.00746 34996 ft 470 kts 47°
2026-05-04 22:38 -19.12327 -41.95558 34996 ft 470 kts 47°
2026-05-04 22:38 -19.08019 -41.90344 34996 ft 470 kts 47°
2026-05-04 22:39 -19.03709 -41.85124 34996 ft 470 kts 47°
2026-05-04 22:39 -18.99433 -41.79941 34996 ft 470 kts 47°
2026-05-04 22:40 -18.95120 -41.74715 34996 ft 470 kts 47°
2026-05-04 22:40 -18.90809 -41.69492 34996 ft 470 kts 47°
2026-05-04 22:41 -18.86525 -41.64303 34996 ft 470 kts 47°
2026-05-04 22:41 -18.82214 -41.59086 34996 ft 470 kts 47°
2026-05-04 22:42 -18.77946 -41.53923 34996 ft 470 kts 47°
2026-05-04 22:42 -18.73638 -41.48715 34996 ft 470 kts 47°
2026-05-04 22:43 -18.69327 -41.43518 34996 ft 470 kts 46°
2026-05-04 22:43 -18.65028 -41.38350 34996 ft 470 kts 46°
2026-05-04 22:44 -18.60714 -41.33162 34996 ft 470 kts 46°
2026-05-04 22:44 -18.56390 -41.27964 34996 ft 470 kts 46°
2026-05-04 22:45 -18.52076 -41.22778 34996 ft 470 kts 46°
2026-05-04 22:45 -18.45632 -41.15036 34996 ft 470 kts 46°
2026-05-04 22:46 -18.41321 -41.09860 34996 ft 470 kts 46°
2026-05-04 22:46 -18.37010 -41.04687 34996 ft 470 kts 46°
2026-05-04 22:47 -18.32686 -40.99503 34996 ft 470 kts 46°
2026-05-04 22:47 -18.28393 -40.94359 34996 ft 470 kts 46°
2026-05-04 22:48 -18.24074 -40.89194 34996 ft 470 kts 46°
2026-05-04 22:48 -18.19738 -40.84032 34996 ft 470 kts 46°
2026-05-04 22:49 -18.15424 -40.78895 34996 ft 470 kts 46°
2026-05-04 22:49 -18.11142 -40.73796 34996 ft 470 kts 46°